NB2231 LGAL-LGAL

Flight info

Callsign NB2231
Flight time 0h 41m
Altitude 4000
Route IDILO G12 SOSUS DCT LGKV DCT AMALA DCT LGLM DCT LMO
Aircraft C172/L-SFG/C

Departure

Time 2026-04-29 13:37
Airport Alexandroupoli Democritus Airport (LGAL)

Arrival

Time 2026-04-29 14:18
Airport Alexandroupoli Democritus Airport (LGAL)
Time Latitude Longitude Altitude Speed Heading
2026-04-29 13:25 40.85578 25.94457 15 ft 0 kts 342°
2026-04-29 13:34 40.85577 25.94430 15 ft 12 kts 201°
2026-04-29 13:34 40.85450 25.94439 15 ft 21 kts 199°
2026-04-29 13:34 40.85325 25.94345 15 ft 20 kts 179°
2026-04-29 13:34 40.85317 25.94555 16 ft 47 kts 77°
2026-04-29 13:35 40.85460 25.95181 17 ft 89 kts 69°
2026-04-29 13:35 40.85612 25.95855 21 ft 60 kts 77°
2026-04-29 13:35 40.85708 25.96141 20 ft 8 kts
2026-04-29 13:35 40.85707 25.96082 20 ft 18 kts 242°
2026-04-29 13:36 40.85612 25.95714 20 ft 65 kts 253°
2026-04-29 13:36 40.85433 25.95043 71 ft 88 kts 248°
2026-04-29 13:36 40.85176 25.94286 251 ft 89 kts 246°
2026-04-29 13:36 40.84892 25.93530 435 ft 93 kts 243°
2026-04-29 13:37 40.84730 25.92726 670 ft 90 kts 252°
2026-04-29 13:37 40.84557 25.91909 894 ft 94 kts 256°
2026-04-29 13:37 40.84397 25.91079 1134 ft 94 kts 255°
2026-04-29 13:37 40.84245 25.90244 1379 ft 94 kts 254°
2026-04-29 13:38 40.84091 25.89398 1613 ft 93 kts 255°
2026-04-29 13:38 40.83943 25.88578 1866 ft 91 kts 255°
2026-04-29 13:38 40.83799 25.87779 2102 ft 88 kts 255°
2026-04-29 13:38 40.83658 25.87000 2340 ft 86 kts 255°
2026-04-29 13:39 40.83567 25.86497 2499 ft 84 kts 255°
2026-04-29 13:39 40.83430 25.85749 2692 ft 88 kts 254°
2026-04-29 13:39 40.83275 25.84927 2835 ft 97 kts 255°
2026-04-29 13:39 40.83106 25.84039 2982 ft 102 kts 255°
2026-04-29 13:40 40.82928 25.83106 3126 ft 107 kts 255°
2026-04-29 13:40 40.82740 25.82141 3271 ft 110 kts 255°
2026-04-29 13:40 40.82547 25.81159 3408 ft 111 kts 255°
2026-04-29 13:40 40.82349 25.80164 3538 ft 112 kts 255°
2026-04-29 13:41 40.82188 25.79154 3669 ft 113 kts 265°
2026-04-29 13:41 40.82128 25.78127 3796 ft 113 kts 265°
2026-04-29 13:41 40.82048 25.77092 3927 ft 113 kts 264°
2026-04-29 13:41 40.81963 25.76063 4054 ft 113 kts 264°
2026-04-29 13:42 40.81871 25.75004 4080 ft 120 kts 264°
2026-04-29 13:42 40.81779 25.73935 4094 ft 124 kts 263°
2026-04-29 13:42 40.81679 25.72792 4089 ft 126 kts 263°
2026-04-29 13:42 40.81576 25.71638 4092 ft 127 kts 263°
2026-04-29 13:43 40.81472 25.70480 4090 ft 127 kts 263°
2026-04-29 13:43 40.81368 25.69321 4091 ft 127 kts 263°
2026-04-29 13:43 40.81263 25.68164 4089 ft 127 kts 263°
2026-04-29 13:43 40.81158 25.67005 4091 ft 127 kts 263°
2026-04-29 13:44 40.81054 25.65848 4090 ft 127 kts 263°
2026-04-29 13:44 40.80949 25.64691 4093 ft 127 kts 263°
2026-04-29 13:44 40.80845 25.63536 4093 ft 127 kts 263°
2026-04-29 13:44 40.80740 25.62380 4093 ft 127 kts 263°
2026-04-29 13:45 40.80635 25.61226 4093 ft 127 kts 263°
2026-04-29 13:45 40.80531 25.60073 4092 ft 126 kts 263°
2026-04-29 13:45 40.80426 25.58921 4091 ft 126 kts 263°
2026-04-29 13:45 40.80322 25.57770 4093 ft 126 kts 263°
2026-04-29 13:46 40.80217 25.56620 4095 ft 126 kts 263°
2026-04-29 13:46 40.80113 25.55485 4097 ft 126 kts 263°
2026-04-29 13:46 40.80008 25.54337 4096 ft 126 kts 263°
2026-04-29 13:46 40.79904 25.53189 4092 ft 126 kts 263°
2026-04-29 13:47 40.79799 25.52045 4094 ft 125 kts 263°
2026-04-29 13:47 40.79694 25.50902 4095 ft 125 kts 263°
2026-04-29 13:47 40.79589 25.49762 4098 ft 125 kts 263°
2026-04-29 13:47 40.79485 25.48621 4098 ft 125 kts 263°
2026-04-29 13:48 40.79380 25.47479 4101 ft 125 kts 263°
2026-04-29 13:48 40.79275 25.46338 4101 ft 125 kts 263°
2026-04-29 13:48 40.79170 25.45195 4095 ft 125 kts 263°
2026-04-29 13:48 40.79065 25.44055 4093 ft 125 kts 263°
2026-04-29 13:49 40.78962 25.42953 4095 ft 125 kts 263°
2026-04-29 13:49 40.78836 25.41822 4091 ft 124 kts 269°
2026-04-29 13:49 40.78755 25.40693 4076 ft 123 kts 267°
2026-04-29 13:49 40.78635 25.39585 4079 ft 122 kts 265°
2026-04-29 13:50 40.78503 25.38486 4079 ft 121 kts 265°
2026-04-29 13:50 40.78367 25.37386 4074 ft 121 kts 264°
2026-04-29 13:50 40.78231 25.36289 4077 ft 121 kts 265°
2026-04-29 13:50 40.78095 25.35193 4078 ft 121 kts 265°
2026-04-29 13:51 40.77958 25.34094 4077 ft 121 kts 265°
2026-04-29 13:51 40.77823 25.33011 4073 ft 121 kts 265°
2026-04-29 13:51 40.77687 25.31913 4080 ft 121 kts 265°
2026-04-29 13:51 40.77550 25.30817 4082 ft 121 kts 265°
2026-04-29 13:52 40.77413 25.29721 4078 ft 121 kts 265°
2026-04-29 13:52 40.77277 25.28626 4080 ft 121 kts 265°
2026-04-29 13:52 40.77141 25.27533 4078 ft 121 kts 265°
2026-04-29 13:52 40.77004 25.26441 4076 ft 121 kts 265°
2026-04-29 13:53 40.76868 25.25352 4074 ft 120 kts 265°
2026-04-29 13:53 40.76732 25.24264 4076 ft 120 kts 265°
2026-04-29 13:53 40.76595 25.23172 4075 ft 121 kts 265°
2026-04-29 13:53 40.76458 25.22082 4077 ft 120 kts 265°
2026-04-29 13:54 40.76322 25.20992 4081 ft 120 kts 265°
2026-04-29 13:54 40.76186 25.19903 4077 ft 121 kts 265°
2026-04-29 13:54 40.76049 25.18811 4075 ft 120 kts 265°
2026-04-29 13:54 40.75913 25.17727 4080 ft 120 kts 265°
2026-04-29 13:55 40.75776 25.16644 4079 ft 119 kts 265°
2026-04-29 13:55 40.75640 25.15561 4078 ft 120 kts 265°
2026-04-29 13:55 40.75505 25.14494 4079 ft 119 kts 265°
2026-04-29 13:55 40.75368 25.13414 4076 ft 119 kts 265°
2026-04-29 13:56 40.75228 25.12333 4078 ft 119 kts 264°
2026-04-29 13:56 40.75024 25.11273 4073 ft 119 kts 262°
2026-04-29 13:56 40.74884 25.10228 4171 ft 114 kts 263°
2026-04-29 13:56 40.74622 25.09237 4207 ft 115 kts 241°
2026-04-29 13:57 40.74058 25.08468 4294 ft 112 kts 232°
2026-04-29 13:57 40.73584 25.07655 4309 ft 117 kts 233°
2026-04-29 13:57 40.72936 25.06971 4354 ft 116 kts 229°
2026-04-29 13:57 40.72250 25.06520 4378 ft 121 kts 176°
2026-04-29 13:58 40.71824 25.07330 4397 ft 128 kts 88°
2026-04-29 13:58 40.71966 25.08485 4454 ft 123 kts 84°
2026-04-29 13:58 40.72178 25.09580 4472 ft 127 kts 78°
2026-04-29 13:58 40.72513 25.10641 4493 ft 126 kts 69°
2026-04-29 13:59 40.72700 25.11758 4552 ft 125 kts 87°
2026-04-29 13:59 40.72910 25.12829 4646 ft 122 kts 71°
2026-04-29 13:59 40.73171 25.13940 4603 ft 128 kts 78°
2026-04-29 13:59 40.73405 25.15060 4632 ft 127 kts 78°
2026-04-29 14:00 40.73791 25.16103 4391 ft 138 kts 45°
2026-04-29 14:00 40.74317 25.17048 4499 ft 126 kts 67°
2026-04-29 14:00 40.74655 25.18213 4313 ft 133 kts 77°
2026-04-29 14:00 40.75007 25.19332 4323 ft 130 kts 70°
2026-04-29 14:01 40.75223 25.20499 4293 ft 133 kts 75°
2026-04-29 14:01 40.75490 25.21675 4233 ft 137 kts 73°
2026-04-29 14:01 40.75764 25.22769 4281 ft 132 kts 71°
2026-04-29 14:01 40.76084 25.23933 4225 ft 134 kts 68°
2026-04-29 14:02 40.76450 25.25017 4280 ft 130 kts 63°
2026-04-29 14:03 40.76693 25.25716 4198 ft 134 kts 66°
2026-04-29 14:03 40.77075 25.26824 4223 ft 130 kts 65°
2026-04-29 14:03 40.77411 25.27967 4114 ft 137 kts 72°
2026-04-29 14:03 40.77692 25.29177 4010 ft 139 kts 75°
2026-04-29 14:04 40.77972 25.30385 3895 ft 140 kts 75°
2026-04-29 14:04 40.78242 25.31656 3598 ft 146 kts 76°
2026-04-29 14:04 40.78488 25.32937 3412 ft 144 kts 76°
2026-04-29 14:04 40.78739 25.34175 3403 ft 132 kts 73°
2026-04-29 14:05 40.79056 25.35244 3522 ft 121 kts 90°
2026-04-29 14:05 40.78792 25.36261 3650 ft 117 kts 117°
2026-04-29 14:05 40.78459 25.37233 3775 ft 116 kts 116°
2026-04-29 14:05 40.78445 25.38269 3878 ft 117 kts 74°
2026-04-29 14:06 40.78675 25.39294 4005 ft 117 kts 75°
2026-04-29 14:06 40.78898 25.40334 4080 ft 121 kts 75°
2026-04-29 14:06 40.79131 25.41433 4091 ft 127 kts 75°
2026-04-29 14:06 40.79369 25.42567 4096 ft 129 kts 75°
2026-04-29 14:07 40.79610 25.43720 4093 ft 131 kts 75°
2026-04-29 14:07 40.79854 25.44883 4092 ft 132 kts 75°
2026-04-29 14:07 40.80097 25.46048 4094 ft 132 kts 75°
2026-04-29 14:07 40.80339 25.47209 4091 ft 131 kts 75°
2026-04-29 14:08 40.80499 25.47978 4095 ft 131 kts 75°
2026-04-29 14:08 40.80730 25.49420 4093 ft 130 kts 83°
2026-04-29 14:08 40.80802 25.50206 4095 ft 130 kts 85°
2026-04-29 14:08 40.80892 25.51396 4090 ft 130 kts 85°
2026-04-29 14:09 40.81011 25.52988 4090 ft 130 kts 85°
2026-04-29 14:09 40.81101 25.54176 4088 ft 130 kts 85°
2026-04-29 14:09 40.81190 25.55365 4091 ft 130 kts 86°
2026-04-29 14:09 40.81220 25.56158 4067 ft 132 kts 89°
2026-04-29 14:10 40.81260 25.57783 4000 ft 132 kts 90°
2026-04-29 14:10 40.81345 25.58962 3983 ft 133 kts 85°
2026-04-29 14:10 40.81422 25.60168 4037 ft 125 kts 83°
2026-04-29 14:10 40.81517 25.61399 3750 ft 141 kts 86°
2026-04-29 14:11 40.81615 25.62695 3506 ft 143 kts 83°
2026-04-29 14:11 40.81747 25.64013 3304 ft 139 kts 84°
2026-04-29 14:11 40.81884 25.65267 3173 ft 136 kts 85°
2026-04-29 14:11 40.82006 25.66447 3258 ft 126 kts 84°
2026-04-29 14:12 40.82061 25.67617 3140 ft 131 kts 87°
2026-04-29 14:12 40.82278 25.68724 3263 ft 123 kts 68°
2026-04-29 14:12 40.82461 25.69872 3168 ft 129 kts 87°
2026-04-29 14:12 40.82595 25.71024 3192 ft 126 kts 75°
2026-04-29 14:13 40.82761 25.72214 2907 ft 138 kts 89°
2026-04-29 14:13 40.82908 25.73475 2725 ft 138 kts 82°
2026-04-29 14:13 40.83054 25.74762 2374 ft 146 kts 83°
2026-04-29 14:13 40.83284 25.75964 2400 ft 130 kts 81°
2026-04-29 14:14 40.83317 25.77148 2187 ft 118 kts 90°
2026-04-29 14:14 40.83376 25.78153 2026 ft 108 kts 84°
2026-04-29 14:14 40.83416 25.79087 1742 ft 104 kts 88°
2026-04-29 14:14 40.83486 25.80020 1860 ft 84 kts 81°
2026-04-29 14:15 40.83640 25.80775 1820 ft 93 kts 84°
2026-04-29 14:15 40.83702 25.81674 1653 ft 105 kts 90°
2026-04-29 14:15 40.83763 25.82627 1520 ft 105 kts 85°
2026-04-29 14:15 40.83859 25.83606 1271 ft 111 kts 85°
2026-04-29 14:16 40.83971 25.84633 894 ft 122 kts 86°
2026-04-29 14:16 40.84059 25.85691 712 ft 117 kts 86°
2026-04-29 14:16 40.84104 25.86718 661 ft 108 kts 92°
2026-04-29 14:16 40.84161 25.87714 527 ft 115 kts 84°
2026-04-29 14:17 40.84268 25.88760 385 ft 113 kts 83°
2026-04-29 14:17 40.84407 25.89777 315 ft 114 kts 80°
2026-04-29 14:17 40.84581 25.90785 265 ft 110 kts 78°
2026-04-29 14:17 40.84759 25.91765 218 ft 108 kts 79°
2026-04-29 14:18 40.84941 25.92695 263 ft 102 kts 74°
2026-04-29 14:18 40.85127 25.93563 161 ft 92 kts 77°
2026-04-29 14:18 40.85282 25.94315 30 ft 75 kts 78°
2026-04-29 14:18 40.85374 25.94784 16 ft 20 kts 73°
2026-04-29 14:19 40.85388 25.94829 16 ft 14 kts 64°
2026-04-29 14:19 40.85530 25.94860 15 ft 21 kts 295°
2026-04-29 14:19 40.85531 25.94714 15 ft 14 kts 291°
2026-04-29 14:19 40.85551 25.94608 15 ft 10 kts 281°
2026-04-29 14:20 40.85554 25.94528 15 ft 7 kts 271°
2026-04-29 14:20 40.85549 25.94474 15 ft 5 kts 269°
2026-04-29 14:20 40.85567 25.94454 15 ft 3 kts 357°
2026-04-29 14:20 40.85577 25.94453 15 ft 0 kts 358°